Regional Weather Roundup
Issued by NWS Goodland, KS

Home | Current Version | Previous Version | Graphics & Text | Print | Product List | Glossary On
Versions: 1 2 3 4 5 6 7 8 9 10 11 12 13 14 15 16 17 18 19 20 21 22 23 24 25 26 27 28 29 30 31 32 33 34 35 36 37 38 39 40 41 42 43 44 45 46 47 48 49 50
000
ASUS43 KGLD 021708
RWRGLD

GOODLAND FORECAST AREA HOURLY WEATHER ROUNDUP
NATIONAL WEATHER SERVICE GOODLAND KS
1100 AM MDT MON MAY 02 2016

...OFFICIAL OBSERVATIONS...

CITY           SKY/WX    TMP DP  RH WIND       PRES   REMARKS
GOODLAND KS    SUNNY     54  31  41 NW13G29   30.20S
HILL CITY KS   MOSUNNY   59  36  42 NW10      30.19F
IMPERIAL NEB   SUNNY     55  34  45 N10G21    30.19F
MCCOOK NEB     SUNNY     57  38  48 VRB6      30.17F
AKRON CO       SUNNY     48  29  47 W10       30.22F
BURLINGTON CO  SUNNY     53  28  38 N12       30.22F
LIMON CO       SUNNY     39  30  70 W10       30.25F
$$

...UNOFFICIAL OBSERVATIONS...

CITY           SKY/WX    TMP DP  RH WIND       PRES   REMARKS
COLBY KS       SUNNY     55  39  54 NW13G18   30.21S
LENORA KS        N/A     55  32  41 MISG        N/A
NORTON KS      SUNNY     55  34  44 NW10G20   30.17S
SHARON SPRINGS   N/A     53  36  53 NW8         N/A
TRIBUNE KS     SUNNY     52  30  43 CALM      30.25
KIT CARSON CO    N/A     51  31  45 MISG        N/A
YUMA CO          N/A     51  32  49 W8G16       N/A
$$




USA.gov is the U.S. government's official web portal to all federal, state and local government web resources and services.